Location: Monteux
(44.0348°N, 4.9972°E)
Time: 18:12:46
(UTC+00:00)

Cosmos 1934 Rocket - Pass Details

Date: 30 November 2020
Orbit: 937 x 1000 km, 83.0° (Epoch: 17 January)

Event Time Altitude Azimuth Distance (km) Brightness Sun altitude
Rises 18:35:45 0° 352° (N) 3,732 7.1 -26.7°
Reaches altitude 10° 18:38:18 10° 353° (N) 2,776 6.4 -27.2°
Maximum altitude 18:44:42 84° 82° (E) 1,003 3.9 -28.3°
Drops below altitude 10° 18:50:59 10° 171° (S) 2,727 6.3 -29.5°
Sets 18:53:28 0° 172° (S) 3,663 7.0 -29.9°
